Tracking 19570 objects as of 22-Feb-2019
HD Live streaming from Space Station
objects crossing your sky now

COSMOS 1818 COOLANT

Track COSMOS 1818 COOLANT now!
10-day predictions


NORAD ID: 36935
Int'l Code: 1987-011P
Perigee: 769.2 km
Apogee: 801.2 km
Inclination: 65.0 °
Period: 100.4 minutes
Semi major axis: 7156 km
RCS: 0.0035 m2 (small)
Launch date: February 1, 1987
Source: Commonwealth of Independent States (former USSR) (CIS)
Launch site: TYURATAM MISSILE AND SPACE COMPLEX (TTMTR)

Note: This is SATELLITE DEBRIS
aabbcc
Your satellite tracking list
Your tracking list is empty




NASA's NSSDC Master Catalog

Two Line Element Set (TLE):
1 36935U 87011P   19043.96703873  .00000039  00000-0  49852-4 0  9997
2 36935  65.0084 171.7329 0022386 269.6677  90.1843 14.34098583515196
Source of the keplerian elements: AFSPC